Showing default

QIANFAN-190, 69408

Orbit data source: Space-Track

QIANFAN-190, 69408 is a Chinese payload satellite in LEO that was launched on Fri, 05 Jun 2026 UTC via a CHANG ZHENG 8 launch vehicle from the Wenchang Satellite Launch Center (WSC). Payload-class satellites include a variety of spacecraft equipped with specific instruments for various scientific and technological missions. These include communications satellites like Starlink; space stations such as the ISS; scientific satellites like the Hubble; Earth observation satellites from companies like Planet Labs, Umbra, and HawkEye 360; GPS; miniature CubeSats for education and research; and military/defense satellites.

Loading next visibility...
Identifier
69408, 2026-125H
Orbit
LEO
Country
Flag of CNCN / PRC
Related business
Manufacturer
SECM?
Mission
Operational spacecraft
Bus & Motor
QIANFAN, Unknown motor
Mass
267 kg wet, ~267 kg dry
Launch date (UTC)
2026-06-05 (2 weeks ago)
Launch vehicle
CHANG ZHENG 8
Launch site
Wenchang Satellite Launch Center (WSC)
Object type
Payload
Rocket body
Debris
Shape & HBR
Unknown
Radar Cross Section
Large (>1 m²)

Expand to show TLE details & history
Last TLE update: 23 hours ago

TLE from 23 hours ago
0 QIANFAN-190
1 69408U 26125H   26170.93298204 -.02091624  00000-0 -11418+1 0  9997
2 69408  88.9967 280.1343 0017438 185.5805 174.5192 14.16273042  2092
Epoch: 2026-06-19T22:23Z
TLE epoch observation values (Epoch: 2026-06-19T22:23:29.648Z)
Latitude
0.00004°
Longitude
36.10591°
Altitude
853.561 km
Speed
7.419 km/s
True Right ascension
18h 40m 32s
True Declination
0° 00' 00"
Sunlit
Object was in full shadow at epoch
Visualization orbit readout
Latitude
Unknown
Longitude
Unknown
Altitude
Unknown
Speed
Unknown
Apparent Right ascension
Unknown
Apparent Declination
Unknown
Sunlit
N/A
Visualization observer readout
Local Sidereal Time
08:33:49
Azimuth
Unknown
Elevation
Unknown
Doppler factor
Unknown
Orbital elements
Apogee altitude
847.519 km
Perigee altitude
822.363 km
Semi-major axis
7,213.078 km
Eccentricity
0.00174
Inclination
88.9967°
RAAN
280.1343°
Arg. of periapsis
185.5805°
True anomaly
174.53824°
Mean anomaly
174.5192°
Eccentric anomaly
174.52873°
Mean motion
3.54293 °/min
Orbital period
101.61 mins
BSTAR
-1.1418
Loading maneuver chart data...
Computing Atmospheric mass density...
Loading historical data...
Loading historical data...
Loading historical data...
Loading historical data...
Loading historical data...
Loading historical data...
Loading historical data...

Documentation

Showing up to 5 results
|